SHIJIAN-20 (SJ-20)

Last updated on Thu Nov 21 2024 00:02:44 GMT+0000 (Coordinated Universal Time)

1 44910U 19097A 24325.69248023 -.00000066 00000+0 00000+0 0 9995 2 44910 3.4451 82.0708 0009646 144.2315 156.1941 1.00272629 17944
UTC large
Height (km)
Speed (km/s)
/
Latitude / Longitude
Inclination (degrees)
Orbital Period (minutes)
Azimuth
Elevation
Range (km)
Doppler Factor

Next 0 passes for location: London (51.5072 / 0.1276)

Sorry there are no passes over London.